| time (UTC) | temp F | wind direction | speed knots | gust knots | rain 1hr in | rain 24hr in | rain mn in | humidity % | barometer mb |
| 20260510175518 | 79 | 175 | 1.7 | 6.1 | 0.00 | 0.05 | 0.01 | 81 | 1016.8 |
| 20260510175019 | 79 | 293 | 2.6 | 6.1 | 0.00 | 0.05 | 0.01 | 80 | 1016.8 |
| 20260510174533 | 78 | 297 | 0.9 | 7.0 | 0.00 | 0.05 | 0.01 | 82 | 1016.8 |
| 20260510174019 | 78 | 276 | 3.5 | 7.8 | 0.00 | 0.05 | 0.01 | 81 | 1016.8 |
| 20260510173518 | 78 | 281 | 4.3 | 7.8 | 0.00 | 0.05 | 0.01 | 81 | 1017.0 |
| 20260510173032 | 79 | 275 | 3.5 | 7.8 | 0.00 | 0.05 | 0.01 | 79 | 1017.0 |
| 20260510172518 | 79 | 51 | 1.7 | 7.0 | 0.00 | 0.05 | 0.01 | 81 | 1016.9 |
| 20260510172020 | 79 | 0 | 2.6 | 7.0 | 0.00 | 0.05 | 0.01 | 80 | 1017.1 |
| 20260510171539 | 79 | 15 | 2.6 | 7.0 | 0.00 | 0.05 | 0.01 | 80 | 1017.1 |
| 20260510171018 | 79 | 279 | 2.6 | 6.1 | 0.00 | 0.05 | 0.01 | 80 | 1017.1 |
| 20260510170522 | 79 | 215 | 1.7 | 6.1 | 0.00 | 0.05 | 0.01 | 82 | 1017.0 |
| 20260510170034 | 79 | 248 | 2.6 | 7.0 | 0.00 | 0.05 | 0.01 | 81 | 1017.0 |
| 20260510165519 | 78 | 0 | 0.9 | 7.0 | 0.00 | 0.26 | 0.01 | 82 | 1017.0 |
| 20260510165014 | 78 | 271 | 2.6 | 7.8 | 0.00 | 0.26 | 0.01 | 82 | 1017.1 |
| 20260510164536 | 78 | 304 | 1.7 | 7.8 | 0.00 | 0.26 | 0.01 | 82 | 1017.1 |
| 20260510164015 | 78 | 292 | 1.7 | 7.0 | 0.00 | 0.26 | 0.01 | 84 | 1017.1 |
| 20260510163516 | 77 | 246 | 1.7 | 7.0 | 0.00 | 0.26 | 0.01 | 85 | 1017.2 |
| 20260510163035 | 76 | 275 | 1.7 | 7.0 | 0.00 | 0.26 | 0.01 | 86 | 1017.1 |
| 20260510162515 | 76 | 261 | 1.7 | 6.1 | 0.00 | 0.26 | 0.01 | 85 | 1017.1 |
| 20260510162015 | 77 | 259 | 1.7 | 6.1 | 0.00 | 0.26 | 0.01 | 83 | 1017.1 |
| 20260510161532 | 77 | 284 | 0.9 | 6.1 | 0.00 | 0.26 | 0.01 | 83 | 1017.0 |
| 20260510161016 | 78 | 261 | 0.9 | 2.6 | 0.00 | 0.26 | 0.01 | 79 | 1017.1 |
| 20260510160519 | 78 | 107 | 0.0 | 1.7 | 0.00 | 0.26 | 0.01 | 81 | 1017.0 |
| 20260510160034 | 77 | 5 | 0.0 | 1.7 | 0.00 | 0.26 | 0.01 | 81 | 1017.0 |
| 20260510155515 | 77 | 0 | 0.0 | 3.5 | 0.00 | 0.39 | 0.01 | 82 | 1017.0 |
| 20260510155015 | 76 | 0 | 0.0 | 4.3 | 0.00 | 0.39 | 0.01 | 82 | 1016.9 |
| 20260510154551 | 76 | 333 | 1.7 | 4.3 | 0.00 | 0.39 | 0.01 | 84 | 1016.9 |
| 20260510154021 | 76 | 32 | 0.0 | 3.5 | 0.00 | 0.39 | 0.01 | 85 | 1016.9 |
| 20260510153518 | 75 | 0 | 0.0 | 3.5 | 0.00 | 0.39 | 0.01 | 86 | 1016.9 |
| 20260510153036 | 75 | 23 | 0.9 | 3.5 | 0.00 | 0.39 | 0.01 | 87 | 1017.0 |
| 20260510152518 | 75 | 44 | 0.9 | 4.3 | 0.00 | 0.39 | 0.01 | 88 | 1016.9 |
| 20260510152015 | 74 | 83 | 0.9 | 4.3 | 0.00 | 0.39 | 0.01 | 89 | 1016.9 |
| 20260510151532 | 74 | 96 | 1.7 | 4.3 | 0.00 | 0.39 | 0.01 | 91 | 1017.0 |
| 20260510151016 | 74 | 78 | 0.9 | 4.3 | 0.00 | 0.39 | 0.01 | 95 | 1017.0 |
| 20260510150515 | 73 | 38 | 1.7 | 4.3 | 0.00 | 0.39 | 0.01 | 97 | 1017.0 |
| 20260510150035 | 72 | 22 | 1.7 | 5.2 | 0.00 | 0.39 | 0.01 | 97 | 1017.0 |
| 20260510145516 | 71 | 0 | 0.9 | 5.2 | 0.00 | 0.49 | 0.01 | 98 | 1017.1 |
| 20260510145015 | 71 | 96 | 1.7 | 3.5 | 0.00 | 0.49 | 0.01 | 99 | 1017.0 |
| 20260510144541 | 71 | 63 | 1.7 | 3.5 | 0.00 | 0.49 | 0.01 | 99 | 1017.1 |
| 20260510144016 | 71 | 37 | 0.9 | 3.5 | 0.00 | 0.49 | 0.01 | 100 | 1017.2 |
| 20260510143515 | 70 | 48 | 0.9 | 3.5 | 0.00 | 0.49 | 0.01 | 100 | 1017.2 |
| 20260510143040 | 70 | 33 | 0.9 | 3.5 | 0.00 | 0.49 | 0.01 | 100 | 1017.2 |
| 20260510142515 | 70 | 56 | 0.0 | 3.5 | 0.00 | 0.49 | 0.01 | 100 | 1017.2 |
| 20260510142015 | 70 | 53 | 1.7 | 3.5 | 0.00 | 0.49 | 0.01 | 100 | 1017.3 |
| 20260510141538 | 70 | 48 | 0.9 | 3.5 | 0.00 | 0.49 | 0.01 | 100 | 1017.2 |
| 20260510141019 | 69 | 33 | 0.0 | 2.6 | 0.00 | 0.49 | 0.01 | 100 | 1017.3 |
| 20260510140517 | 69 | 0 | 0.9 | 2.6 | 0.00 | 0.49 | 0.01 | 100 | 1017.2 |
| 20260510140038 | 69 | 69 | 0.0 | 2.6 | 0.00 | 0.49 | 0.01 | 100 | 1017.1 |
| 20260510135515 | 68 | 0 | 0.0 | 5.2 | 0.00 | 0.52 | 0.01 | 99 | 1017.0 |
| 20260510135018 | 68 | 86 | 0.0 | 5.2 | 0.00 | 0.52 | 0.01 | 100 | 1017.0 |
| 20260510134534 | 68 | 77 | 1.7 | 4.3 | 0.00 | 0.52 | 0.01 | 100 | 1016.9 |
| 20260510134015 | 68 | 77 | 0.9 | 1.7 | 0.00 | 0.52 | 0.01 | 100 | 1017.0 |
| 20260510133516 | 68 | 0 | 0.0 | 1.7 | 0.00 | 0.52 | 0.01 | 100 | 1017.0 |
| 20260510133032 | 67 | 76 | 0.0 | 1.7 | 0.00 | 0.52 | 0.01 | 100 | 1017.0 |
| 20260510132515 | 67 | 0 | 0.0 | 1.7 | 0.00 | 0.52 | 0.01 | 100 | 1016.9 |
| 20260510132015 | 67 | 0 | 0.0 | 1.7 | 0.00 | 0.52 | 0.01 | 100 | 1017.0 |
| 20260510131536 | 67 | 0 | 0.0 | 2.6 | 0.00 | 0.52 | 0.01 | 100 | 1017.0 |
| 20260510131017 | 67 | 0 | 0.0 | 3.5 | 0.00 | 0.52 | 0.01 | 99 | 1017.0 |
| 20260510130516 | 66 | 345 | 0.9 | 3.5 | 0.00 | 0.52 | 0.01 | 99 | 1016.8 |
| 20260510130031 | 67 | 32 | 0.9 | 3.5 | 0.00 | 0.52 | 0.01 | 99 | 1016.7 |
| 20260510125518 | 67 | 32 | 0.9 | 3.5 | 0.00 | 0.54 | 0.01 | 100 | 1016.7 |
| 20260510125015 | 67 | 30 | 0.9 | 3.5 | 0.00 | 0.54 | 0.01 | 100 | 1016.6 |
| 20260510124534 | 66 | 0 | 0.0 | 2.6 | 0.00 | 0.54 | 0.01 | 99 | 1016.6 |
| 20260510124016 | 66 | 0 | 0.0 | 2.6 | 0.00 | 0.54 | 0.01 | 99 | 1016.7 |
| 20260510123518 | 66 | 0 | 0.0 | 2.6 | 0.00 | 0.54 | 0.01 | 100 | 1016.6 |
| 20260510123036 | 66 | 0 | 0.0 | 2.6 | 0.00 | 0.54 | 0.01 | 100 | 1016.5 |
| 20260510122517 | 66 | 60 | 0.9 | 2.6 | 0.00 | 0.54 | 0.01 | 99 | 1016.3 |
| 20260510122018 | 66 | 0 | 0.0 | 0.0 | 0.00 | 0.54 | 0.01 | 99 | 1016.2 |
| 20260510121532 | 65 | 0 | 0.0 | 0.0 | 0.00 | 0.54 | 0.01 | 100 | 1016.0 |
| 20260510121019 | 65 | 0 | 0.0 | 0.0 | 0.00 | 0.54 | 0.01 | 100 | 1016.0 |
| 20260510120517 | 65 | 0 | 0.0 | 0.0 | 0.00 | 0.54 | 0.01 | 99 | 1015.8 |
| 20260510120034 | 65 | 0 | 0.0 | 0.0 | 0.00 | 0.54 | 0.01 | 99 | 1015.7 |
| 20260510115517 | 65 | 0 | 0.0 | 0.0 | 0.00 | 0.56 | 0.01 | 99 | 1015.6 |
| 20260510115019 | 65 | 0 | 0.0 | 0.0 | 0.00 | 0.56 | 0.01 | 99 | 1015.6 |
| 20260510114538 | 65 | 0 | 0.0 | 0.0 | 0.00 | 0.56 | 0.01 | 99 | 1015.4 |
| 20260510114017 | 65 | 0 | 0.0 | 0.0 | 0.00 | 0.56 | 0.01 | 99 | 1015.4 |
| 20260510113519 | 65 | 0 | 0.0 | 0.0 | 0.00 | 0.56 | 0.01 | 99 | 1015.3 |
| 20260510113035 | 65 | 0 | 0.0 | 0.0 | 0.00 | 0.56 | 0.01 | 99 | 1015.3 |
| 20260510112519 | 65 | 0 | 0.0 | 0.0 | 0.00 | 0.56 | 0.01 | 99 | 1015.3 |
| 20260510112018 | 65 | 0 | 0.0 | 0.0 | 0.00 | 0.56 | 0.01 | 99 | 1015.2 |
| 20260510111532 | 65 | 0 | 0.0 | 0.0 | 0.00 | 0.56 | 0.01 | 99 | 1015.0 |
| 20260510111015 | 65 | 0 | 0.0 | 0.0 | 0.00 | 0.56 | 0.01 | 99 | 1015.0 |
| 20260510110520 | 65 | 0 | 0.0 | 0.0 | 0.00 | 0.56 | 0.01 | 99 | 1015.0 |
| 20260510110038 | 65 | 0 | 0.0 | 0.0 | 0.00 | 0.56 | 0.01 | 99 | 1014.8 |
| 20260510105518 | 65 | 0 | 0.0 | 0.0 | 0.00 | 0.56 | 0.01 | 99 | 1014.7 |
| 20260510105018 | 65 | 0 | 0.0 | 0.0 | 0.00 | 0.56 | 0.01 | 99 | 1014.7 |
| 20260510104532 | 65 | 0 | 0.0 | 0.0 | 0.00 | 0.56 | 0.01 | 99 | 1014.6 |
| 20260510104017 | 65 | 0 | 0.0 | 0.0 | 0.00 | 0.56 | 0.01 | 99 | 1014.6 |
| 20260510103517 | 65 | 0 | 0.0 | 0.0 | 0.00 | 0.56 | 0.01 | 99 | 1014.6 |
| 20260510103034 | 65 | 0 | 0.0 | 0.0 | 0.00 | 0.56 | 0.01 | 99 | 1014.4 |
| 20260510102518 | 65 | 0 | 0.0 | 0.0 | 0.00 | 0.56 | 0.01 | 99 | 1014.4 |
| 20260510102016 | 65 | 0 | 0.0 | 0.0 | 0.00 | 0.56 | 0.01 | 99 | 1014.4 |
| 20260510101537 | 65 | 0 | 0.0 | 0.0 | 0.00 | 0.56 | 0.01 | 99 | 1014.4 |
| 20260510101019 | 65 | 0 | 0.0 | 0.0 | 0.00 | 0.56 | 0.01 | 99 | 1014.4 |
| 20260510100522 | 65 | 0 | 0.0 | 0.0 | 0.00 | 0.56 | 0.01 | 99 | 1014.3 |
| 20260510100034 | 65 | 0 | 0.0 | 0.0 | 0.00 | 0.56 | 0.01 | 99 | 1014.3 |
| 20260510095518 | 65 | 0 | 0.0 | 0.0 | 0.00 | 0.56 | 0.01 | 99 | 1014.1 |
| 20260510095021 | 65 | 0 | 0.0 | 0.0 | 0.00 | 0.56 | 0.01 | 99 | 1014.1 |
| 20260510094545 | 65 | 0 | 0.0 | 0.0 | 0.00 | 0.56 | 0.01 | 99 | 1014.0 |
| 20260510094017 | 65 | 0 | 0.0 | 0.0 | 0.00 | 0.56 | 0.01 | 99 | 1014.0 |
| 20260510093514 | 66 | 0 | 0.0 | 0.0 | 0.00 | 0.56 | 0.01 | 99 | 1013.8 |
| 20260510093050 | 66 | 0 | 0.0 | 0.0 | 0.00 | 0.56 | 0.01 | 99 | 1013.8 |
| 20260510092517 | 66 | 0 | 0.0 | 0.0 | 0.00 | 0.56 | 0.01 | 99 | 1013.7 |
| 20260510092017 | 66 | 0 | 0.0 | 0.0 | 0.00 | 0.56 | 0.01 | 99 | 1013.7 |
| 20260510091542 | 66 | 0 | 0.0 | 0.0 | 0.00 | 0.56 | 0.01 | 99 | 1013.6 |
| 20260510091017 | 66 | 0 | 0.0 | 0.0 | 0.00 | 0.56 | 0.01 | 99 | 1013.6 |
| 20260510090515 | 66 | 0 | 0.0 | 0.0 | 0.00 | 0.56 | 0.01 | 99 | 1013.6 |
| 20260510090037 | 66 | 0 | 0.0 | 0.0 | 0.00 | 0.56 | 0.01 | 99 | 1013.5 |
| 20260510085516 | 66 | 0 | 0.0 | 0.0 | 0.00 | 0.56 | 0.01 | 99 | 1013.5 |
| 20260510085016 | 66 | 0 | 0.0 | 0.0 | 0.00 | 0.56 | 0.01 | 99 | 1013.4 |
| 20260510084536 | 66 | 0 | 0.0 | 0.0 | 0.00 | 0.56 | 0.01 | 99 | 1013.4 |
| 20260510084015 | 66 | 0 | 0.0 | 0.0 | 0.01 | 0.56 | 0.01 | 99 | 1013.5 |
| 20260510083519 | 66 | 0 | 0.0 | 0.0 | 0.01 | 0.56 | 0.01 | 99 | 1013.4 |
| 20260510083034 | 66 | 0 | 0.0 | 0.0 | 0.01 | 0.56 | 0.01 | 99 | 1013.3 |
| 20260510082514 | 66 | 0 | 0.0 | 0.0 | 0.01 | 0.56 | 0.01 | 99 | 1013.3 |
| 20260510082017 | 66 | 0 | 0.0 | 0.0 | 0.01 | 0.56 | 0.01 | 99 | 1013.2 |
| 20260510081532 | 66 | 0 | 0.0 | 0.0 | 0.01 | 0.56 | 0.01 | 99 | 1013.2 |
| 20260510081014 | 66 | 0 | 0.0 | 0.0 | 0.01 | 0.56 | 0.01 | 99 | 1013.1 |
| 20260510080517 | 66 | 0 | 0.0 | 0.0 | 0.01 | 0.56 | 0.01 | 99 | 1013.1 |
| 20260510080032 | 66 | 0 | 0.0 | 0.0 | 0.01 | 0.56 | 0.01 | 99 | 1013.0 |
| 20260510075517 | 66 | 0 | 0.0 | 2.6 | 0.01 | 0.57 | 0.01 | 99 | 1012.9 |
| 20260510075014 | 66 | 0 | 0.0 | 2.6 | 0.01 | 0.57 | 0.01 | 99 | 1012.9 |
| 20260510074536 | 66 | 20 | 0.0 | 1.7 | 0.01 | 0.57 | 0.01 | 99 | 1012.9 |
| 20260510074015 | 66 | 0 | 0.0 | 0.0 | 0.00 | 0.56 | 0.00 | 99 | 1013.0 |
| 20260510073515 | 66 | 0 | 0.0 | 0.0 | 0.00 | 0.56 | 0.00 | 99 | 1013.0 |
| 20260510073042 | 66 | 0 | 0.0 | 0.0 | 0.00 | 0.56 | 0.00 | 99 | 1013.0 |
| 20260510072515 | 66 | 0 | 0.0 | 1.7 | 0.00 | 0.56 | 0.00 | 99 | 1012.9 |
| 20260510072015 | 66 | 0 | 0.0 | 1.7 | 0.00 | 0.56 | 0.00 | 99 | 1012.8 |
| 20260510071547 | 67 | 0 | 0.0 | 0.9 | 0.00 | 0.56 | 0.00 | 99 | 1012.7 |
| 20260510071014 | 66 | 0 | 0.0 | 0.9 | 0.00 | 0.56 | 0.00 | 99 | 1012.7 |
| 20260510070514 | 67 | 0 | 0.0 | 0.0 | 0.00 | 0.56 | 0.00 | 99 | 1012.7 |
| 20260510070035 | 66 | 0 | 0.0 | 0.0 | 0.00 | 0.56 | 0.00 | 99 | 1012.8 |
| 20260510065520 | 67 | 0 | 0.0 | 0.9 | 0.00 | 0.56 | 0.00 | 99 | 1012.8 |
| 20260510065017 | 67 | 0 | 0.0 | 0.9 | 0.00 | 0.56 | 0.00 | 99 | 1012.7 |
| 20260510064534 | 67 | 0 | 0.0 | 0.9 | 0.00 | 0.56 | 0.00 | 99 | 1012.6 |
| 20260510064018 | 66 | 0 | 0.0 | 0.0 | 0.00 | 0.56 | 0.00 | 99 | 1012.7 |
| 20260510063518 | 66 | 0 | 0.0 | 1.7 | 0.00 | 0.56 | 0.00 | 99 | 1012.7 |
| 20260510063032 | 66 | 0 | 0.0 | 3.5 | 0.00 | 0.56 | 0.00 | 99 | 1012.8 |
| 20260510062515 | 66 | 101 | 0.9 | 3.5 | 0.00 | 0.56 | 0.00 | 99 | 1012.7 |
| 20260510062014 | 66 | 131 | 0.0 | 2.6 | 0.00 | 0.56 | 0.00 | 98 | 1012.7 |
| 20260510061540 | 66 | 138 | 0.0 | 2.6 | 0.00 | 0.56 | 0.00 | 98 | 1012.8 |
| 20260510061018 | 67 | 94 | 1.7 | 2.6 | 0.00 | 0.56 | 0.00 | 98 | 1013.0 |
| 20260510060518 | 67 | 0 | 0.0 | 0.0 | 0.00 | 0.56 | 0.00 | 98 | 1013.0 |
| 20260510060036 | 67 | 0 | 0.0 | 0.9 | 0.00 | 0.56 | 0.00 | 98 | 1013.1 |
| 20260510055517 | 67 | 0 | 0.0 | 0.9 | 0.00 | 0.57 | 0.00 | 99 | 1013.3 |
| 20260510055018 | 66 | 0 | 0.0 | 0.0 | 0.00 | 0.57 | 0.00 | 98 | 1013.2 |
| 20260510054534 | 67 | 0 | 0.0 | 0.0 | 0.00 | 0.57 | 0.00 | 98 | 1013.4 |
| 20260510054016 | 67 | 0 | 0.0 | 0.0 | 0.00 | 0.57 | 0.00 | 98 | 1013.3 |
| 20260510053518 | 67 | 0 | 0.0 | 0.0 | 0.00 | 0.57 | 0.00 | 98 | 1013.5 |
| 20260510053051 | 67 | 0 | 0.0 | 0.0 | 0.00 | 0.57 | 0.00 | 98 | 1013.5 |
| 20260510052514 | 67 | 0 | 0.0 | 0.0 | 0.00 | 0.57 | 0.00 | 98 | 1013.5 |
| 20260510052018 | 67 | 0 | 0.0 | 0.0 | 0.00 | 0.57 | 0.00 | 98 | 1013.6 |
| 20260510051538 | 67 | 0 | 0.0 | 0.0 | 0.00 | 0.57 | 0.00 | 98 | 1013.7 |
| 20260510051018 | 67 | 0 | 0.0 | 0.0 | 0.00 | 0.57 | 0.00 | 98 | 1013.6 |
| 20260510050517 | 67 | 0 | 0.0 | 0.0 | 0.00 | 0.57 | 0.00 | 98 | 1013.8 |
| 20260510050035 | 67 | 0 | 0.0 | 0.0 | 0.00 | 0.57 | 0.00 | 98 | 1013.8 |
| 20260510045514 | 67 | 0 | 0.0 | 0.0 | 0.00 | 0.57 | 0.57 | 98 | 1013.8 |
| 20260510045017 | 67 | 0 | 0.0 | 0.0 | 0.00 | 0.57 | 0.57 | 98 | 1013.7 |
| 20260510044533 | 68 | 0 | 0.0 | 0.0 | 0.00 | 0.57 | 0.57 | 98 | 1013.9 |
| 20260510044018 | 68 | 0 | 0.0 | 0.0 | 0.00 | 0.57 | 0.57 | 98 | 1013.9 |
| 20260510043515 | 68 | 0 | 0.0 | 1.7 | 0.00 | 0.57 | 0.57 | 98 | 1013.7 |
| 20260510043045 | 68 | 0 | 0.0 | 1.7 | 0.00 | 0.57 | 0.57 | 98 | 1013.7 |
| 20260510042517 | 68 | 0 | 0.0 | 2.6 | 0.00 | 0.57 | 0.57 | 98 | 1013.5 |
| 20260510042017 | 68 | 0 | 0.0 | 2.6 | 0.00 | 0.57 | 0.57 | 98 | 1013.6 |
| 20260510041532 | 68 | 83 | 0.9 | 2.6 | 0.00 | 0.57 | 0.57 | 98 | 1013.6 |
| 20260510041018 | 68 | 76 | 0.0 | 0.9 | 0.00 | 0.57 | 0.57 | 98 | 1013.8 |
| 20260510040518 | 68 | 0 | 0.0 | 0.0 | 0.00 | 0.57 | 0.57 | 98 | 1014.0 |
| 20260510040041 | 68 | 0 | 0.0 | 0.0 | 0.00 | 0.57 | 0.57 | 98 | 1014.0 |
| 20260510035517 | 68 | 0 | 0.0 | 0.0 | 0.00 | 0.57 | 0.57 | 98 | 1013.9 |
| 20260510035017 | 68 | 0 | 0.0 | 0.0 | 0.00 | 0.57 | 0.57 | 98 | 1014.0 |
| 20260510034532 | 68 | 0 | 0.0 | 0.0 | 0.00 | 0.57 | 0.57 | 98 | 1013.8 |
| 20260510034018 | 68 | 0 | 0.0 | 0.0 | 0.00 | 0.57 | 0.57 | 98 | 1014.0 |
| 20260510033520 | 68 | 0 | 0.0 | 0.0 | 0.00 | 0.57 | 0.57 | 98 | 1014.0 |
| 20260510033032 | 68 | 0 | 0.0 | 0.0 | 0.00 | 0.57 | 0.57 | 98 | 1014.0 |
| 20260510032517 | 68 | 0 | 0.0 | 0.0 | 0.00 | 0.57 | 0.57 | 98 | 1014.0 |
| 20260510032018 | 68 | 0 | 0.0 | 0.0 | 0.00 | 0.57 | 0.57 | 98 | 1014.0 |
| 20260510031540 | 68 | 0 | 0.0 | 0.0 | 0.00 | 0.57 | 0.57 | 98 | 1014.0 |
| 20260510031016 | 68 | 0 | 0.0 | 0.0 | 0.00 | 0.57 | 0.57 | 98 | 1013.9 |
| 20260510030514 | 68 | 0 | 0.0 | 0.0 | 0.00 | 0.57 | 0.57 | 98 | 1013.8 |
| 20260510030034 | 68 | 0 | 0.0 | 0.0 | 0.00 | 0.57 | 0.57 | 98 | 1013.8 |
| 20260510025515 | 68 | 0 | 0.0 | 0.0 | 0.00 | 0.57 | 0.57 | 98 | 1013.9 |
| 20260510025015 | 68 | 0 | 0.0 | 0.0 | 0.00 | 0.57 | 0.57 | 98 | 1013.8 |
| 20260510024536 | 68 | 0 | 0.0 | 0.0 | 0.00 | 0.57 | 0.57 | 98 | 1013.8 |
| 20260510024019 | 68 | 0 | 0.0 | 0.9 | 0.00 | 0.57 | 0.57 | 98 | 1013.8 |
| 20260510023514 | 68 | 0 | 0.0 | 0.9 | 0.00 | 0.57 | 0.57 | 98 | 1013.6 |
| 20260510023034 | 68 | 0 | 0.0 | 1.7 | 0.00 | 0.57 | 0.57 | 97 | 1013.3 |
| 20260510022515 | 68 | 0 | 0.0 | 1.7 | 0.00 | 0.57 | 0.57 | 97 | 1013.3 |
| 20260510022015 | 68 | 0 | 0.9 | 1.7 | 0.00 | 0.57 | 0.57 | 98 | 1013.2 |
| 20260510021542 | 68 | 0 | 0.0 | 1.7 | 0.01 | 0.57 | 0.57 | 98 | 1013.4 |
| 20260510021018 | 68 | 0 | 0.0 | 2.6 | 0.01 | 0.57 | 0.57 | 97 | 1013.3 |
| 20260510020518 | 68 | 0 | 0.0 | 2.6 | 0.01 | 0.57 | 0.57 | 97 | 1013.4 |
| 20260510020032 | 68 | 281 | 0.9 | 2.6 | 0.01 | 0.57 | 0.57 | 97 | 1013.6 |
| 20260510015518 | 68 | 0 | 0.9 | 2.6 | 0.01 | 0.60 | 0.57 | 98 | 1013.6 |
| 20260510015017 | 68 | 0 | 0.0 | 0.0 | 0.01 | 0.60 | 0.57 | 97 | 1013.4 |
| 20260510014535 | 68 | 0 | 0.0 | 0.0 | 0.01 | 0.60 | 0.57 | 97 | 1013.3 |
| 20260510014018 | 68 | 0 | 0.0 | 0.0 | 0.01 | 0.60 | 0.57 | 97 | 1013.3 |
| 20260510013515 | 68 | 0 | 0.0 | 0.0 | 0.01 | 0.60 | 0.57 | 97 | 1013.3 |
| 20260510013042 | 68 | 0 | 0.0 | 0.0 | 0.01 | 0.60 | 0.57 | 97 | 1013.1 |
| 20260510012517 | 68 | 0 | 0.0 | 0.0 | 0.01 | 0.60 | 0.57 | 97 | 1013.3 |
| 20260510012014 | 68 | 0 | 0.0 | 0.0 | 0.01 | 0.60 | 0.57 | 97 | 1013.4 |
| 20260510011541 | 68 | 0 | 0.0 | 0.0 | 0.00 | 0.58 | 0.56 | 97 | 1013.5 |
| 20260510011018 | 68 | 0 | 0.0 | 0.0 | 0.00 | 0.58 | 0.56 | 97 | 1013.5 |
| 20260510010518 | 69 | 0 | 0.0 | 0.0 | 0.00 | 0.58 | 0.56 | 97 | 1013.5 |
| 20260510010033 | 69 | 0 | 0.0 | 0.0 | 0.00 | 0.58 | 0.56 | 97 | 1013.5 |
| 20260510005518 | 69 | 0 | 0.0 | 0.0 | 0.00 | 0.62 | 0.56 | 97 | 1013.5 |
| 20260510005014 | 69 | 0 | 0.0 | 0.0 | 0.00 | 0.62 | 0.56 | 97 | 1013.5 |
| 20260510004537 | 69 | 0 | 0.0 | 0.0 | 0.00 | 0.62 | 0.56 | 97 | 1013.5 |
| 20260510004018 | 69 | 0 | 0.0 | 0.0 | 0.00 | 0.62 | 0.56 | 97 | 1013.6 |
| 20260510003518 | 69 | 0 | 0.0 | 0.0 | 0.00 | 0.62 | 0.56 | 97 | 1013.7 |
| 20260510003034 | 69 | 0 | 0.0 | 0.0 | 0.00 | 0.62 | 0.56 | 96 | 1013.5 |
| 20260510002519 | 69 | 0 | 0.0 | 0.0 | 0.01 | 0.62 | 0.56 | 96 | 1013.3 |
| 20260510002017 | 69 | 0 | 0.0 | 1.7 | 0.01 | 0.62 | 0.56 | 96 | 1013.2 |
| 20260510001538 | 69 | 0 | 0.0 | 1.7 | 0.01 | 0.62 | 0.56 | 96 | 1013.0 |
| 20260510001018 | 69 | 348 | 0.0 | 3.5 | 0.01 | 0.62 | 0.56 | 96 | 1012.7 |
| 20260510000515 | 69 | 0 | 0.9 | 3.5 | 0.01 | 0.62 | 0.56 | 96 | 1012.2 |
| 20260510000045 | 69 | 0 | 0.0 | 3.5 | 0.01 | 0.62 | 0.56 | 96 | 1012.4 |
| 20260509235516 | 69 | 0 | 0.0 | 6.1 | 0.01 | 0.64 | 0.56 | 96 | 1012.5 |
| 20260509235017 | 69 | 229 | 0.9 | 6.1 | 0.01 | 0.64 | 0.56 | 96 | 1012.8 |
| 20260509234538 | 69 | 344 | 1.7 | 8.7 | 0.02 | 0.64 | 0.56 | 96 | 1012.5 |
| 20260509234020 | 68 | 0 | 0.9 | 8.7 | 0.02 | 0.64 | 0.56 | 96 | 1011.9 |
| 20260509233515 | 69 | 121 | 0.9 | 7.8 | 0.02 | 0.64 | 0.56 | 96 | 1011.4 |
| 20260509233036 | 69 | 126 | 2.6 | 7.0 | 0.01 | 0.63 | 0.55 | 95 | 1011.3 |
| 20260509232518 | 69 | 119 | 0.9 | 6.1 | 0.01 | 0.63 | 0.55 | 95 | 1011.3 |
| 20260509232017 | 69 | 177 | 1.7 | 6.1 | 0.01 | 0.63 | 0.55 | 95 | 1011.4 |
| 20260509231539 | 69 | 113 | 1.7 | 6.1 | 0.01 | 0.63 | 0.55 | 95 | 1011.7 |
| 20260509231021 | 69 | 140 | 0.0 | 2.6 | 0.01 | 0.63 | 0.55 | 95 | 1012.1 |
| 20260509230518 | 70 | 157 | 0.0 | 2.6 | 0.01 | 0.63 | 0.55 | 95 | 1012.3 |
| 20260509230035 | 70 | 0 | 0.0 | 1.7 | 0.01 | 0.63 | 0.55 | 95 | 1012.3 |
| 20260509225515 | 70 | 0 | 0.0 | 1.7 | 0.01 | 0.66 | 0.55 | 94 | 1012.4 |
| 20260509225017 | 70 | 0 | 0.0 | 1.7 | 0.01 | 0.66 | 0.55 | 94 | 1012.5 |
| 20260509224534 | 70 | 0 | 0.0 | 0.0 | 0.00 | 0.65 | 0.54 | 95 | 1012.6 |
| 20260509224017 | 70 | 0 | 0.0 | 0.0 | 0.01 | 0.65 | 0.54 | 95 | 1012.8 |
| 20260509223521 | 70 | 0 | 0.0 | 0.9 | 0.01 | 0.65 | 0.54 | 95 | 1012.7 |
| 20260509223032 | 70 | 0 | 0.0 | 1.7 | 0.01 | 0.65 | 0.54 | 94 | 1012.8 |
| 20260509222517 | 70 | 0 | 0.0 | 1.7 | 0.01 | 0.65 | 0.54 | 94 | 1012.8 |
| 20260509222021 | 70 | 0 | 0.0 | 0.9 | 0.01 | 0.65 | 0.54 | 94 | 1012.6 |
| 20260509221538 | 70 | 0 | 0.0 | 0.9 | 0.01 | 0.65 | 0.54 | 94 | 1012.5 |
| 20260509221018 | 70 | 0 | 0.0 | 0.0 | 0.01 | 0.65 | 0.54 | 94 | 1012.2 |
| 20260509220516 | 70 | 0 | 0.0 | 0.0 | 0.01 | 0.65 | 0.54 | 94 | 1012.3 |
| 20260509220035 | 70 | 0 | 0.0 | 0.0 | 0.01 | 0.65 | 0.54 | 93 | 1012.2 |
| 20260509215519 | 70 | 0 | 0.0 | 0.0 | 0.01 | 0.87 | 0.54 | 93 | 1012.2 |
| 20260509215017 | 70 | 0 | 0.0 | 0.9 | 0.01 | 0.87 | 0.54 | 92 | 1012.4 |
| 20260509214542 | 70 | 0 | 0.0 | 1.7 | 0.01 | 0.87 | 0.54 | 92 | 1012.6 |
| 20260509214017 | 70 | 0 | 0.0 | 1.7 | 0.00 | 0.86 | 0.52 | 92 | 1012.6 |
| 20260509213517 | 70 | 0 | 0.0 | 2.6 | 0.00 | 0.86 | 0.52 | 93 | 1012.5 |
| 20260509213036 | 70 | 0 | 0.0 | 2.6 | 0.00 | 0.86 | 0.52 | 92 | 1012.3 |
| 20260509212521 | 70 | 0 | 0.0 | 2.6 | 0.00 | 0.86 | 0.52 | 92 | 1011.7 |
| 20260509212018 | 71 | 0 | 0.0 | 2.6 | 0.00 | 0.86 | 0.52 | 92 | 1011.9 |
| 20260509211534 | 71 | 0 | 0.0 | 2.6 | 0.00 | 0.86 | 0.52 | 93 | 1012.2 |
| 20260509211017 | 71 | 0 | 0.0 | 1.7 | 0.00 | 0.86 | 0.52 | 93 | 1012.0 |
| 20260509210515 | 71 | 0 | 0.0 | 1.7 | 0.00 | 0.86 | 0.52 | 92 | 1012.2 |
| 20260509210037 | 71 | 0 | 0.0 | 2.6 | 0.00 | 0.86 | 0.52 | 91 | 1012.3 |
| 20260509205517 | 71 | 0 | 0.0 | 2.6 | 0.00 | 0.96 | 0.52 | 90 | 1012.3 |
| 20260509205018 | 71 | 71 | 0.0 | 2.6 | 0.00 | 0.96 | 0.52 | 90 | 1012.2 |
| 20260509204537 | 71 | 0 | 0.9 | 2.6 | 0.00 | 0.96 | 0.52 | 91 | 1011.9 |
| 20260509204014 | 71 | 0 | 0.0 | 1.7 | 0.00 | 0.96 | 0.52 | 91 | 1012.5 |
| 20260509203514 | 71 | 0 | 0.0 | 1.7 | 0.00 | 0.96 | 0.52 | 90 | 1012.6 |
| 20260509203039 | 71 | 0 | 0.0 | 1.7 | 0.00 | 0.96 | 0.52 | 91 | 1012.4 |
| 20260509202515 | 71 | 278 | 0.0 | 1.7 | 0.00 | 0.96 | 0.52 | 90 | 1012.3 |
| 20260509202017 | 71 | 285 | 0.0 | 3.5 | 0.00 | 0.96 | 0.52 | 91 | 1012.3 |
| 20260509201534 | 71 | 40 | 0.0 | 3.5 | 0.00 | 0.96 | 0.52 | 91 | 1012.1 |
| 20260509201017 | 71 | 0 | 0.0 | 2.6 | 0.00 | 0.96 | 0.52 | 91 | 1011.7 |
| 20260509200521 | 71 | 0 | 0.0 | 3.5 | 0.00 | 0.96 | 0.52 | 91 | 1011.8 |
| 20260509200032 | 71 | 259 | 0.0 | 3.5 | 0.00 | 0.96 | 0.52 | 91 | 1011.5 |
| 20260509195518 | 71 | 0 | 0.0 | 2.6 | 0.00 | 0.96 | 0.52 | 92 | 1010.7 |
| 20260509195014 | 71 | 0 | 0.0 | 3.5 | 0.00 | 0.96 | 0.52 | 91 | 1010.9 |
| 20260509194535 | 71 | 0 | 0.0 | 3.5 | 0.00 | 0.96 | 0.52 | 90 | 1010.4 |
| 20260509194019 | 71 | 127 | 0.9 | 3.5 | 0.00 | 0.96 | 0.52 | 89 | 1010.2 |
| 20260509193517 | 71 | 145 | 0.9 | 3.5 | 0.00 | 0.96 | 0.52 | 89 | 1010.2 |
| 20260509193034 | 72 | 0 | 0.0 | 3.5 | 0.00 | 0.96 | 0.52 | 90 | 1010.1 |
| 20260509192517 | 72 | 122 | 0.0 | 3.5 | 0.00 | 0.96 | 0.52 | 89 | 1010.4 |
| 20260509192017 | 72 | 0 | 0.0 | 3.5 | 0.00 | 0.96 | 0.52 | 90 | 1010.5 |
| 20260509191552 | 72 | 0 | 0.0 | 0.9 | 0.00 | 0.96 | 0.52 | 91 | 1010.5 |
| 20260509191017 | 72 | 0 | 0.0 | 2.6 | 0.00 | 0.96 | 0.52 | 91 | 1010.7 |
| 20260509190521 | 72 | 0 | 0.0 | 2.6 | 0.00 | 0.96 | 0.52 | 90 | 1010.8 |
| 20260509190035 | 72 | 0 | 0.0 | 2.6 | 0.00 | 0.96 | 0.52 | 91 | 1010.7 |
| 20260509185518 | 72 | 207 | 0.0 | 2.6 | 0.00 | 0.96 | 0.52 | 91 | 1010.7 |
| 20260509185018 | 72 | 0 | 0.0 | 3.5 | 0.00 | 0.96 | 0.52 | 90 | 1010.6 |
| 20260509184545 | 71 | 0 | 0.0 | 7.0 | 0.00 | 0.96 | 0.52 | 91 | 1010.6 |
| 20260509184018 | 71 | 0 | 0.9 | 7.0 | 0.00 | 0.96 | 0.52 | 91 | 1010.6 |
| 20260509183517 | 71 | 140 | 0.9 | 5.2 | 0.00 | 0.96 | 0.52 | 90 | 1010.6 |
| 20260509183047 | 71 | 138 | 1.7 | 7.0 | 0.00 | 0.96 | 0.52 | 91 | 1010.5 |
| 20260509182518 | 71 | 74 | 1.7 | 8.7 | 0.00 | 0.96 | 0.52 | 91 | 1010.7 |
| 20260509182018 | 70 | 83 | 3.5 | 8.7 | 0.00 | 0.96 | 0.52 | 91 | 1010.7 |
| 20260509181535 | 70 | 123 | 1.7 | 9.6 | 0.00 | 0.96 | 0.52 | 92 | 1010.9 |
| 20260509181020 | 70 | 134 | 2.6 | 9.6 | 0.00 | 0.96 | 0.52 | 93 | 1011.4 |
| 20260509180517 | 69 | 68 | 4.3 | 8.7 | 0.00 | 0.96 | 0.52 | 93 | 1011.4 |
| 20260509180031 | 69 | 88 | 4.3 | 8.7 | 0.00 | 0.96 | 0.52 | 93 | 1011.6 |